Regional Weather Roundup
Issued by NWS Cleveland, OH

Current Version | Previous Version | Text Only | Print | Product List | Glossary On
Versions: 1 2 3 4 5 6 7 8 9 10 11 12 13 14 15 16 17 18 19 20 21 22 23 24 25 26 27 28 29 30 31 32 33 34 35 36 37 38 39 40 41 42 43 44 45 46 47 48 49 50
000 ASUS41 KCLE 270410 RWRCLE OHIO REGIONAL WEATHER ROUNDUP NATIONAL WEATHER SERVICE CLEVELAND, OH 1100 PM EST WED NOV 26 2014 NOTE: "FAIR" INDICATES FEW OR NO CLOUDS BELOW 12,000 FEET WITH NO SIGNIFICANT WEATHER AND/OR OBSTRUCTIONS TO VISIBILITY. OHZ001>008-015>018-024>027-034-035-043-044-270500- NORTHWEST OHIO CITY SKY/WX TMP DP RH WIND PRES REMARKS DEFIANCE CLOUDY 31 25 78 N6 30.10S WCI 25 FINDLAY CLOUDY 31 26 82 NW5 30.06F WCI 26 TOLEDO EXPRESS CLOUDY 31 25 78 NW5 30.08S WCI 26 TOLEDO EXEC CLOUDY 33 24 69 N7 30.09S WCI 27 LIMA CLOUDY 31 26 82 N6 30.06S WCI 25 $$ OHZ009>014-019>023-028>033-038-089-270500- NORTHEAST OHIO CITY SKY/WX TMP DP RH WIND PRES REMARKS CLE-HOPKINS CLOUDY 32 28 85 S6 30.05S WCI 26 CLE-LAKEFRONT CLOUDY 35 29 78 SW6 30.02F CUY CO. ARPT MOCLDY 36 32 87 W5 30.03R LORAIN-ELYRIA CLOUDY 32 30 92 W9 30.03S WCI 24 ASHTABULA CLOUDY 33 29 85 CALM 30.01F AKRON-CANTON CLOUDY 34 25 69 W6 30.01S WCI 29 WOOSTER PTCLDY 29 26 89 NW5 30.02S WCI 24 MANSFIELD MOCLDY 28 26 92 NW3 30.02F YOUNGSTOWN CLOUDY 34 29 82 CALM 29.99F $$ OHZ042-051>053-060>062-070>072-077>081-270500- SOUTHWEST OHIO CITY SKY/WX TMP DP RH WIND PRES REMARKS CINC-COVINGTON CLOUDY 31 23 72 N6 30.05S WCI 25 CINC-LUNKEN CLOUDY 31 25 78 N5 30.09S WCI 26 HAMILTON CLOUDY 28 23 81 CALM 30.09S DAYTON CLOUDY 29 24 82 NW7 30.07R WCI 22 WRIGHT-PAT AFB CLOUDY 29 24 79 CALM 30.06S DAYTON GENERAL CLOUDY 29 23 78 NW3 30.05S WILMINGTON CLOUDY 29 24 82 N6 30.04S WCI 23 $$ OHZ036-037-039>041-045>050-054>059-063>069-073>076-082>088-270500- CENTRAL AND SOUTHEAST OHIO CITY SKY/WX TMP DP RH WIND PRES REMARKS COLUMBUS CLOUDY 33 27 78 N8 30.03F WCI 26 OSU AIRPORT CLOUDY 32 26 78 NW7 30.04S WCI 26 BOLTON FIELD CLOUDY 32 25 75 N7 30.04S WCI 26 RICKENBACK AFB CLOUDY 32 27 80 NW5 30.04S WCI 28 NEWARK PTCLDY 33 26 75 N5 30.02F WCI 29 MARION CLOUDY 32 27 81 N7 30.05S WCI 26 LANCASTER CLOUDY 32 26 78 CALM 30.03F ZANESVILLE CLOUDY 34 27 75 CALM 30.03R NEW PHILLY CLOUDY 35 27 72 NW5 30.03S $$

USA.gov is the U.S. government's official web portal to all federal, state and local government web resources and services.